EW7191 Weather Reports


Display with metric or nautical units.
time (UTC)temp
F
wind
direction
speed
MPH
gust
MPH
rain 1hr
in
rain 24hr
in
rain mn
in
humidity
%
barometer
mb
20260507094533 49 94 0.0 0.0 0.00 0.00 0.00 89 1024.6
20260507093031 49 94 0.0 0.0 0.00 0.00 0.00 88 1024.7
20260507091540 50 84 0.0 0.0 0.00 0.00 0.00 88 1024.7
20260507090036 50 84 0.0 0.0 0.00 0.00 0.00 88 1024.7
20260507084528 50 84 0.0 0.0 0.00 0.00 0.00 87 1024.7
20260507083031 51 46 0.0 0.0 0.00 0.00 0.00 88 1024.7
20260507081524 51 91 0.0 0.0 0.00 0.00 0.00 88 1024.7
20260507080023 51 91 0.0 0.0 0.00 0.00 0.00 87 1024.6
20260507074518 52 91 0.0 0.0 0.00 0.00 0.00 85 1024.7
20260507073015 53 91 0.0 0.0 0.00 0.00 0.00 84 1024.6
20260507071513 53 91 0.0 0.0 0.00 0.00 0.00 83 1024.7
20260507070013 54 91 0.0 0.0 0.00 0.00 0.00 83 1024.7
20260507064510 55 89 0.0 0.0 0.00 0.00 0.00 82 1024.6
20260507063010 55 84 0.0 0.0 0.00 0.00 0.00 82 1024.7
20260507061510 56 84 0.0 0.0 0.00 0.00 0.00 80 1024.7
20260507060013 57 84 0.0 0.0 0.00 0.00 0.00 80 1024.6
20260507054517 58 84 0.0 0.0 0.00 0.00 0.00 79 1024.6
20260507053125 58 68 0.0 0.0 0.00 0.00 0.00 80 1024.6
20260507051508 59 78 0.0 0.0 0.00 0.00 0.00 78 1024.5
20260507050007 59 78 0.0 0.0 0.00 0.00 0.00 77 1024.5
20260507044506 60 78 0.0 0.0 0.00 0.00 0.00 75 1024.4
20260507043016 61 78 0.0 0.0 0.00 0.00 0.00 74 1024.2
20260507041505 62 297 0.0 0.0 0.00 0.00 0.00 71 1023.9
20260507040005 64 297 0.0 0.0 0.00 0.00 0.00 69 1023.7
20260507034503 65 297 0.0 0.0 0.00 0.00 0.00 68 1023.5
20260507033003 66 297 0.0 0.0 0.00 0.00 0.00 65 1023.4
20260507031503 68 297 0.0 0.0 0.00 0.00 0.00 61 1023.2
20260507030002 71 336 0.0 0.0 0.00 0.00 0.00 56 1023.1
20260507024505 72 336 0.0 0.0 0.00 0.00 0.00 53 1023.1
20260507023001 73 203 0.0 0.0 0.00 0.00 0.00 52 1022.9
20260507021501 75 259 0.0 2.0 0.00 0.00 0.00 49 1022.8
20260507020115 76 329 0.0 0.0 0.00 0.00 0.00 47 1022.8
20260507014606 77 319 0.0 1.0 0.00 0.00 0.00 45 1022.7
20260507013100 78 271 0.0 1.0 0.00 0.00 0.00 42 1022.7
20260507011558 80 277 0.0 0.0 0.00 0.00 0.00 41 1022.7
20260507004605 81 246 0.0 4.0 0.00 0.00 0.00 40 1022.5
20260507003056 81 321 0.0 2.0 0.00 0.00 0.00 42 1022.3
20260507001556 82 55 0.0 4.0 0.00 0.00 0.00 39 1022.2
20260507000056 82 275 0.0 4.0 0.00 0.00 0.00 37 1022.0
20260506234555 82 89 0.0 3.0 0.00 0.00 0.00 37 1022.0
20260506233109 83 338 0.0 2.0 0.00 0.00 0.00 34 1021.9
20260506231559 82 309 0.0 3.0 0.00 0.00 0.00 33 1022.0
20260506230054 83 315 0.0 3.0 0.00 0.00 0.00 33 1022.1
20260506224553 82 264 0.0 1.0 0.00 0.00 0.00 37 1022.3
20260506223052 83 36 0.0 1.0 0.00 0.00 0.00 35 1022.5
20260506221550 82 231 0.0 1.0 0.00 0.00 0.00 37 1022.7
20260506220047 81 146 0.0 0.0 0.00 0.00 0.00 38 1022.9
20260506214544 80 200 0.0 0.0 0.00 0.00 0.00 39 1023.0
20260506213057 79 329 0.0 0.0 0.00 0.00 0.00 43 1023.3
20260506211538 78 60 0.0 0.0 0.00 0.00 0.00 47 1023.5
20260506210038 78 265 0.0 1.0 0.00 0.00 0.00 46 1023.5
20260506204536 77 72 0.0 0.0 0.00 0.00 0.00 47 1023.7
20260506203035 77 322 0.0 0.0 0.00 0.00 0.00 44 1023.9
20260506201532 76 229 0.0 0.0 0.00 0.00 0.00 45 1024.0
20260506200029 75 271 0.0 0.0 0.00 0.00 0.00 54 1024.3
20260506194527 74 273 0.0 0.0 0.00 0.00 0.00 57 1024.6
20260506193025 74 139 0.0 0.0 0.00 0.00 0.00 58 1024.8
20260506191524 73 302 0.0 0.0 0.00 0.00 0.00 57 1025.0
20260506190022 73 216 0.0 0.0 0.00 0.00 0.00 58 1025.3
20260506184538 71 264 0.0 0.0 0.00 0.00 0.00 60 1025.4
20260506183028 70 294 0.0 0.0 0.00 0.00 0.00 60 1025.4
20260506181517 69 275 0.0 0.0 0.00 0.00 0.00 61 1025.5
20260506180015 68 183 0.0 0.0 0.00 0.00 0.00 65 1025.5
20260506174512 68 264 0.0 0.0 0.00 0.00 0.00 64 1025.8
20260506173007 66 232 0.0 0.0 0.00 0.00 0.00 67 1025.8
20260506171507 65 269 0.0 0.0 0.00 0.00 0.00 70 1025.9
20260506170003 64 211 0.0 0.0 0.00 0.00 0.00 71 1025.9
20260506164613 63 249 0.0 0.0 0.00 0.00 0.00 74 1025.8
20260506163100 62 274 0.0 0.0 0.00 0.00 0.00 75 1025.9
20260506161553 61 252 0.0 0.0 0.00 0.00 0.00 78 1025.9
20260506160054 61 273 0.0 0.0 0.00 0.00 0.00 75 1025.8
20260506154550 59 208 0.0 0.0 0.00 0.00 0.00 81 1025.9
20260506153106 58 328 0.0 0.0 0.00 0.00 0.00 84 1025.8
20260506151543 56 127 0.0 0.0 0.00 0.00 0.00 89 1025.9
20260506150042 54 113 0.0 0.0 0.00 0.00 0.00 92 1026.0
20260506144534 52 96 0.0 0.0 0.00 0.00 0.00 93 1026.0
20260506143033 51 96 0.0 0.0 0.00 0.00 0.00 94 1025.9
20260506141531 50 96 0.0 0.0 0.00 0.00 0.00 94 1025.6
20260506140029 49 96 0.0 0.0 0.00 0.00 0.00 95 1025.4
20260506134525 48 96 0.0 0.0 0.00 0.00 0.00 95 1024.8
20260506133023 47 96 0.0 0.0 0.00 0.00 0.00 94 1024.8
20260506131532 47 96 0.0 0.0 0.00 0.00 0.00 94 1024.8
20260506130019 48 96 0.0 0.0 0.00 0.00 0.00 94 1024.4
20260506124517 48 96 0.0 0.0 0.00 0.00 0.00 93 1024.3
20260506123015 48 96 0.0 0.0 0.00 0.00 0.00 93 1024.2
20260506121513 48 96 0.0 0.0 0.00 0.00 0.00 93 1024.0
20260506120018 49 96 0.0 0.0 0.00 0.00 0.00 93 1024.1
20260506114518 49 89 0.0 0.0 0.00 0.00 0.00 93 1023.8
20260506113021 49 89 0.0 0.0 0.00 0.00 0.00 93 1023.8
20260506111506 49 89 0.0 0.0 0.00 0.00 0.00 93 1023.7
20260506110006 50 89 0.0 0.0 0.00 0.00 0.00 93 1023.5
20260506104500 50 89 0.0 0.0 0.00 0.00 0.00 92 1023.2
20260506103059 50 89 0.0 0.0 0.00 0.00 0.00 92 1023.1
20260506101556 50 89 0.0 0.0 0.00 0.00 0.00 91 1023.1
20260506100055 50 89 0.0 0.0 0.00 0.00 0.00 91 1023.0